Location: *
(49.7115°N, 15.0136°E)
Time: 23:05:18
(UTC+00:00)

STARLINK-1050 - Pass Details

Date: 27 February 2020
Orbit: 549 x 550 km, 53.0° (Epoch: 05 April)

Event Time Altitude Azimuth Distance (km) Brightness Sun altitude
Rises 18:30:00 0° 243° (WSW) 2,713 8.0 -18.8°
Reaches altitude 10° 18:32:13 10° 243° (WSW) 1,823 7.0 -19.2°
Maximum altitude 18:36:22 84° 155° (SSE) 560 3.5 -19.8°
Enters shadow 18:37:16 54° 74° (ENE) 672 3.7 -20.0°
